Location: Alpha Ridge Park
(39.3209°N, 76.9128°W)
Time: 11:06:58
(UTC-04:00)

Transit 2A - Pass Details

Date: 27 May 2019
Orbit: 593 x 966 km, 66.7° (Epoch: 15 June)

Event Time Altitude Azimuth Distance (km) Brightness Sun altitude
Rises 14:39:26 0° 342° (NNW) 3,576 9.4 63.0°
Reaches altitude 10° 14:43:25 10° 6° (N) 2,564 8.7 62.3°
Maximum altitude 14:46:29 14° 38° (NE) 2,211 8.3 61.8°
Drops below altitude 10° 14:49:26 10° 69° (ENE) 2,434 8.4 61.3°
Sets 14:53:01 0° 94° (E) 3,275 9.0 60.7°
